• Join FlightAware (Why Join?)
  • Login
  • US Flag 
08:08AM EST


 

Airport Tracker/Info


-or-


 

Live Flight TrackerFlight Track Log ✈ DAL3721 ✈ 08-Jan-2014 ✈ KCVG - KXNA

Flight Track Log - Related Links

Times and Time Zones

All times are in EST time to prevent confusion due to time zone crossing. See the DAL3721 flight status page for this flight to view local times or setup timezone preferences in your user account.

Time Position Orientation Groundspeed Altitude Reporting Facility
EST Latitude Longitude Course Direction KTS MPH feet Rate Location/Type
10:25AM 39.0333 -84.6500 195° South 158 182 1,400  Level Cincinnati TRACON
10:26AM 38.9833 -84.6667 195° South 191 220 3,700 2,450 Climbing Cincinnati TRACON
10:27AM 38.9333 -84.7000 207° Southwest 226 260 6,300 2,581 Climbing Cincinnati TRACON
10:29AM 38.8086 -84.7772 206° Southwest 265 305 11,400 2,366 Climbing Indianapolis Center
10:30AM 38.7292 -84.8258 206° Southwest 312 359 13,200 1,839 Climbing Indianapolis Center
10:31AM 38.6472 -84.8758 205° Southwest 326 375 15,200 1,902 Climbing Indianapolis Center
10:32AM 38.5667 -84.9253 206° Southwest 327 376 17,100 1,561 Climbing Indianapolis Center
10:33AM 38.4658 -84.9861 205° Southwest 338 389 18,400 823 Climbing Indianapolis Center
10:34AM 38.3778 -85.0306 202° Southwest 339 390 18,800 435 Climbing Indianapolis Center
10:35AM 38.3147 -85.0947 219° Southwest 303 349 19,300 435 Climbing Indianapolis Center
10:36AM 38.2756 -85.1814 240° Southwest 283 326 19,700 339 Climbing Indianapolis Center
10:37AM 38.2389 -85.2672 241° Southwest 273 314 20,000 146 Climbing Indianapolis Center
10:38AM 38.2019 -85.3525 241° Southwest 273 314 20,000  Level Indianapolis Center
10:39AM 38.1614 -85.4397 239° Southwest 280 322 20,000  Level Indianapolis Center
10:40AM 38.1236 -85.5283 242° Southwest 283 326 20,000  Level Indianapolis Center
10:41AM 38.1011 -85.6244 253° West 292 336 20,000  Level Indianapolis Center
10:43AM 38.0925 -85.7261 264° West 288 331 20,000  Level Indianapolis Center
10:44AM 38.0842 -85.8472 265° West 287 330 20,000  Level Indianapolis Center
10:45AM 38.0753 -85.9497 264° West 290 334 20,000  Level Indianapolis Center
10:46AM 38.0681 -86.0531 265° West 291 335 20,000  Level Indianapolis Center
10:47AM 38.0606 -86.1558 265° West 291 335 20,000  Level Indianapolis Center
10:48AM 38.0522 -86.2603 264° West 295 339 20,000  Level Indianapolis Center
10:49AM 38.0444 -86.3633 265° West 291 335 20,000  Level Indianapolis Center
10:50AM 38.0469 -86.4664 272° West 294 338 20,000 -194 Level Indianapolis Center
10:51AM 38.1308 -86.4975 344° North 338 389 19,600 -484 Descending Indianapolis Center
10:52AM 38.2075 -86.4067 43° Northeast 390 449 19,000 -293 Descending Indianapolis Center
10:53AM 38.2789 -86.2656 57° Northeast 394 453 19,000 -488 Level Indianapolis Center
10:54AM 38.3369 -86.1461 58° Northeast 395 455 18,000 -871 Descending Indianapolis Center
10:55AM 38.3989 -86.0211 58° Northeast 414 476 17,200 -1,065 Descending Indianapolis Center
10:56AM 38.4617 -85.8986 57° Northeast 412 474 15,800 -1,366 Descending Indianapolis Center
10:57AM 38.5183 -85.7775 59° Northeast 400 460 14,400 -1,415 Descending Indianapolis Center
10:58AM 38.5764 -85.6625 57° Northeast 387 445 12,900 -1,403 Descending Indianapolis Center
10:59AM 38.6292 -85.5472 60° Northeast 376 433 11,500 -919 Descending Indianapolis Center
11:00AM 38.6806 -85.4372 59° Northeast 363 418 11,000 -242 Descending Indianapolis Center
11:01AM 38.7389 -85.3089 60° Northeast 351 404 11,000 -488 Level Indianapolis Center
11:02AM 38.7847 -85.2111 59° Northeast 328 377 10,000 -927 Descending Indianapolis Center
11:03AM 38.8283 -85.1169 59° Northeast 312 359 9,100 -484 Descending Indianapolis Center
11:04AM 38.8708 -85.0228 60° Northeast 308 354 9,000 -49 Descending Indianapolis Center
11:05AM 38.9128 -84.9292 60° Northeast 305 351 9,000  Level Indianapolis Center
11:06AM 38.9603 -84.8250 60° Northeast 308 354 9,000 -242 Level Indianapolis Center
11:07AM 39.0194 -84.7636 39° Northeast 300 345 8,500 -968 Descending Indianapolis Center
11:08AM 39.0908 -84.7647 359° North 266 306 7,000 -1,610 Descending Indianapolis Center
11:09AM 39.1642 -84.7697 357° North 264 304 5,200 -1,366 Descending Indianapolis Center
11:10AM 39.2461 -84.7289 21° North 268 308 4,200 -839 Descending Indianapolis Center
11:12AM 39.1500 -84.6667 153° Southeast 166 191 2,600 -758 Descending Cincinnati TRACON
11:13AM 39.1000 -84.6667 180° South 124 143 1,800 -727 Descending Cincinnati TRACON